Time,TemperatureF,DewpointF,PressureIn,WindDirection,WindDirectionDegrees,WindSpeedMPH,WindSpeedGustMPH,Humidity,HourlyPrecipIn,Conditions,Clouds,dailyrainin,SolarRadiationWatts/m^2,SoftwareType,DateUTC
2013-09-08 00:12:00,54.0,51.0,-100.00,WSW,252,1.0,2.0,90,-99.99,,,-99.99,0.000000,,2013-09-08 06:12:00,
2013-09-08 00:42:00,53.0,51.0,-100.00,North,0,3.0,4.0,90,-99.99,,,-99.99,0.000000,,2013-09-08 06:42:00,
2013-09-08 01:12:00,53.0,51.0,-100.00,SE,139,1.0,3.0,91,-99.99,,,-99.99,0.000000,,2013-09-08 07:12:00,
2013-09-08 01:42:00,52.0,50.0,-100.00,NW,310,1.0,3.0,92,-99.99,,,-99.99,0.000000,,2013-09-08 07:42:00,
2013-09-08 02:11:00,53.0,51.0,-100.00,South,190,2.0,3.0,92,-99.99,,,-99.99,0.000000,,2013-09-08 08:11:00,
2013-09-08 02:22:00,53.0,51.0,-100.00,WNW,297,3.0,3.0,92,-99.99,,,-99.99,0.000000,,2013-09-08 08:22:00,
2013-09-08 02:42:00,54.0,52.0,-100.00,ENE,59,1.0,2.0,92,-99.99,,,-99.99,0.000000,,2013-09-08 08:42:00,
2013-09-08 03:22:00,54.0,52.0,-100.00,East,81,0.0,0.0,92,-99.99,,,-99.99,0.000000,,2013-09-08 09:22:00,
2013-09-08 03:43:00,54.0,52.0,-100.00,NNE,13,5.0,5.0,93,-99.99,,,-99.99,0.000000,,2013-09-08 09:43:00,
2013-09-08 04:12:00,55.0,52.0,-100.00,West,266,2.0,3.0,90,-99.99,,,-99.99,0.000000,,2013-09-08 10:12:00,
2013-09-08 04:42:00,55.0,52.0,-100.00,East,82,3.0,3.0,91,-99.99,,,-99.99,0.000000,,2013-09-08 10:42:00,
2013-09-08 05:42:00,55.0,52.0,-100.00,SE,131,4.0,5.0,92,-99.99,,,-99.99,0.000000,,2013-09-08 11:42:00,
2013-09-08 06:21:00,55.0,53.0,-100.00,SE,137,5.0,6.0,91,-99.99,,,-99.99,0.010000,,2013-09-08 12:21:00,
2013-09-08 06:42:00,54.0,52.0,-100.00,North,6,5.0,5.0,91,-99.99,,,-99.99,0.010000,,2013-09-08 12:42:00,
2013-09-08 07:22:00,56.0,52.0,-100.00,NNW,347,7.0,12.0,87,-99.99,,,-99.99,0.110000,,2013-09-08 13:22:00,
2013-09-08 07:42:00,56.0,52.0,-100.00,NNW,336,4.0,9.0,87,-99.99,,,-99.99,1.170000,,2013-09-08 13:42:00,
2013-09-08 08:42:00,55.0,53.0,-100.00,WNW,291,3.0,4.0,92,-99.99,,,-99.99,14.280000,,2013-09-08 14:42:00,
2013-09-08 09:12:00,55.0,53.0,-100.00,South,173,6.0,7.0,92,-99.99,,,-99.99,26.760000,,2013-09-08 15:12:00,
2013-09-08 09:45:00,55.0,53.0,-100.00,South,186,4.0,6.0,93,-99.99,,,-99.99,36.349998,,2013-09-08 15:45:00,
2013-09-08 10:14:00,56.0,54.0,-100.00,ENE,74,1.0,2.0,93,-99.99,,,-99.99,63.139999,,2013-09-08 16:14:00,
2013-09-08 10:43:00,56.0,54.0,-100.00,NW,309,1.0,2.0,91,-99.99,,,-99.99,95.699997,,2013-09-08 16:43:00,
2013-09-08 11:43:00,58.0,55.0,-100.00,North,7,1.0,2.0,89,-99.99,,,-99.99,87.400002,,2013-09-08 17:43:00,
2013-09-08 12:13:00,58.0,55.0,-100.00,South,177,7.0,8.0,90,-99.99,,,-99.99,81.800003,,2013-09-08 18:13:00,
2013-09-08 12:22:00,58.0,55.0,-100.00,West,259,3.0,5.0,90,-99.99,,,-99.99,86.800003,,2013-09-08 18:22:00,
2013-09-08 12:42:00,58.0,53.0,-100.00,North,6,8.0,10.0,84,-99.99,,,-99.99,91.000000,,2013-09-08 18:42:00,
2013-09-08 13:22:00,59.0,53.0,-100.00,NNE,12,10.0,14.0,80,-99.99,,,-99.99,214.699997,,2013-09-08 19:22:00,
2013-09-08 13:42:00,59.0,51.0,-100.00,NNE,28,13.0,15.0,75,-99.99,,,-99.99,126.599998,,2013-09-08 19:42:00,
2013-09-08 14:11:00,60.0,52.0,-100.00,NNE,25,8.0,13.0,73,-99.99,,,-99.99,215.000000,,2013-09-08 20:11:00,
2013-09-08 14:42:00,61.0,52.0,-100.00,NE,48,4.0,5.0,71,-99.99,,,-99.99,221.399994,,2013-09-08 20:42:00,
2013-09-08 15:12:00,63.0,54.0,-100.00,South,185,3.0,4.0,73,-99.99,,,-99.99,436.000000,,2013-09-08 21:12:00,
2013-09-08 15:22:00,63.0,53.0,-100.00,South,178,2.0,6.0,70,-99.99,,,-99.99,416.500000,,2013-09-08 21:22:00,
2013-09-08 15:43:00,62.0,52.0,-100.00,SW,222,5.0,6.0,69,-99.99,,,-99.99,409.700012,,2013-09-08 21:43:00,
2013-09-08 16:13:00,65.0,52.0,-100.00,SSW,207,4.0,5.0,63,-99.99,,,-99.99,472.299988,,2013-09-08 22:13:00,
2013-09-08 16:43:00,66.0,53.0,-100.00,SSW,213,4.0,5.0,63,-99.99,,,-99.99,401.700012,,2013-09-08 22:43:00,
2013-09-08 17:12:00,68.0,53.0,-100.00,SE,145,2.0,3.0,57,-99.99,,,-99.99,870.000000,,2013-09-08 23:12:00,
2013-09-08 17:42:00,67.0,51.0,-100.00,WNW,290,2.0,3.0,57,-99.99,,,-99.99,365.100006,,2013-09-08 23:42:00,
2013-09-08 18:21:00,67.0,54.0,-100.00,South,175,3.0,5.0,63,-99.99,,,-99.99,165.899994,,2013-09-09 00:21:00,
2013-09-08 18:42:00,65.0,54.0,-100.00,SSW,202,7.0,8.0,67,-99.99,,,-99.99,128.300003,,2013-09-09 00:42:00,
2013-09-08 19:21:00,65.0,53.0,-100.00,SSE,160,4.0,4.0,65,-99.99,,,-99.99,53.959999,,2013-09-09 01:21:00,
2013-09-08 19:42:00,62.0,54.0,-100.00,NW,311,3.0,3.0,74,-99.99,,,-99.99,42.369999,,2013-09-09 01:42:00,
2013-09-08 20:11:00,60.0,54.0,-100.00,North,6,4.0,4.0,81,-99.99,,,-99.99,8.260000,,2013-09-09 02:11:00,
2013-09-08 20:21:00,59.0,54.0,-100.00,North,349,4.0,4.0,82,-99.99,,,-99.99,4.040000,,2013-09-09 02:21:00,
2013-09-08 20:42:00,57.0,53.0,-100.00,NNE,25,3.0,5.0,85,-99.99,,,-99.99,0.200000,,2013-09-09 02:42:00,
2013-09-08 21:22:00,55.0,51.0,-100.00,NNW,344,4.0,4.0,86,-99.99,,,-99.99,0.060000,,2013-09-09 03:22:00,
2013-09-08 21:44:00,56.0,52.0,-100.00,NNE,17,7.0,7.0,84,-99.99,,,-99.99,0.010000,,2013-09-09 03:44:00,
2013-09-08 22:43:00,54.0,50.0,-100.00,NNW,343,2.0,2.0,85,-99.99,,,-99.99,0.010000,,2013-09-09 04:43:00,
2013-09-08 23:13:00,53.0,49.0,-100.00,North,2,3.0,4.0,87,-99.99,,,-99.99,0.000000,,2013-09-09 05:13:00,